Flag for Greenland Weather past 2 weeks in Qaanaaq, Greenland

Now
39 °F

Sunny.


Feels Like: 34 °F
Forecast: N/A
Wind: 8 mph from Northwest

Location: Thule A. B.

Current Time: May 29, 2015 at 7:37:56 PM

Latest Report: May 29, 2015 at 6:58 PM


Visibility: N/A

Pressure: 29.38 "Hg

Humidity: 45%

Dew point: 19 °F

Location of QaanaaqLocation

Historic Weather in Qaanaaq — Graph

°F

Qaanaaq temperature yesterday

Maximum temperature yesterday: 30 °F (at 9:58 AM)
Minimum temperature yesterday: 25 °F (at 12:58 AM)
Average temperature yesterday: 27 °F

Past Weeks' High & Low Weather Summary

 TemperatureHumidityPressure
High39 °F (May 25, 12:58 PM)100% (May 29, 3:58 AM)29.99 "Hg (May 29, 3:58 AM)
Low18 °F (May 14, 11:58 PM)37% (May 20, 11:58 AM)29.37 "Hg (May 22, 8:58 PM)
Average27 °F71%29.68 "Hg
* Reported May 14 5:58 PM — May 29 5:58 PM, Qaanaaq, Weather by CustomWeather, © 2015

Note: Actual official high and low records may vary slightly from our data, if they occured in-between our weather recording intervals... More about our weather records

Advertising

Qaanaaq weather history for previous 24 hours

 ConditionsComfort  
Time TempWeatherWind HumidityBarometerVisibility
5:58 PM
Fri, May 29
37 °FSunny.9 mph56%29.39 "HgN/A
4:58 PM37 °FSunny.8 mph52%29.38 "HgN/A
3:58 PM36 °FSunny.9 mph60%29.39 "HgN/A
2:58 PM34 °FSunny.7 mph75%29.39 "HgN/A
1:58 PM34 °FSunny.7 mph75%29.39 "HgN/A
12:58 PM32 °FSunny.5 mph80%29.39 "HgN/A
11:58 AM30 °FSunny.No wind86%29.40 "HgN/A
10:58 AM32 °FSunny.2 mph80%29.40 "HgN/A
9:58 AM28 °FSunny.5 mph86%29.42 "HgN/A
8:58 AM27 °FSunny.5 mph93%29.44 "HgN/A
7:58 AM25 °FLow clouds.2 mph93%29.47 "HgN/A
6:58 AM25 °FIce fog.No wind93%29.50 "Hg2 mi
5:58 AM25 °FLow clouds.No wind93%29.53 "HgN/A
4:58 AM25 °FLow clouds.1 mph93%29.56 "HgN/A
3:58 AM25 °FLow clouds.1 mph100%29.60 "HgN/A
2:58 AM25 °FLow clouds.No wind93%29.64 "HgN/A
1:58 AM25 °FLow clouds.No wind93%29.68 "HgN/A
12:58 AM25 °FLow clouds.5 mph93%29.71 "HgN/A
11:58 PM
Thu, May 28
25 °FLow clouds.5 mph93%29.74 "HgN/A
10:58 PM25 °FLow clouds.3 mph93%29.77 "HgN/A
9:58 PM27 °FLow clouds.No wind86%29.79 "HgN/A
8:58 PM27 °FLow clouds.1 mph93%29.80 "HgN/A
7:58 PM27 °FLow clouds.3 mph93%29.82 "HgN/A
Weather by CustomWeather, © 2015

See weather overviewHow to use our weather pages